| time (UTC) | temp F | wind direction | speed knots | gust knots | rain 1hr in | rain 24hr in | rain mn in | humidity % | barometer mb |
| 20260507042941 | 44 | 351 | 0.9 | 4.3 | 0.00 | 0.16 | 0.01 | 97 | 1011.9 |
| 20260507042442 | 44 | 55 | 0.9 | 3.5 | 0.00 | 0.16 | 0.01 | 97 | 1011.8 |
| 20260507041939 | 44 | 46 | 0.9 | 3.5 | 0.00 | 0.16 | 0.01 | 97 | 1011.8 |
| 20260507041705 | 44 | 338 | 0.9 | 4.3 | 0.00 | 0.16 | 0.01 | 97 | 1011.8 |
| 20260507040936 | 44 | 331 | 1.7 | 7.0 | 0.00 | 0.16 | 0.01 | 97 | 1011.8 |
| 20260507040435 | 44 | 36 | 0.9 | 7.0 | 0.00 | 0.16 | 0.01 | 97 | 1011.8 |
| 20260507035935 | 44 | 14 | 0.9 | 2.6 | 0.00 | 0.16 | 0.01 | 97 | 1011.6 |
| 20260507035436 | 44 | 45 | 1.7 | 2.6 | 0.00 | 0.16 | 0.01 | 96 | 1011.6 |
| 20260507034935 | 44 | 42 | 1.7 | 2.6 | 0.00 | 0.16 | 0.01 | 97 | 1011.6 |
| 20260507034432 | 44 | 11 | 0.9 | 2.6 | 0.00 | 0.16 | 0.01 | 96 | 1011.6 |
| 20260507033929 | 44 | 22 | 0.9 | 2.6 | 0.00 | 0.16 | 0.01 | 96 | 1011.5 |
| 20260507033429 | 44 | 55 | 1.7 | 3.5 | 0.00 | 0.16 | 0.01 | 96 | 1011.5 |
| 20260507033202 | 44 | 41 | 0.9 | 3.5 | 0.00 | 0.16 | 0.01 | 96 | 1011.6 |
| 20260507032423 | 44 | 44 | 0.9 | 3.5 | 0.00 | 0.16 | 0.01 | 96 | 1011.6 |
| 20260507031915 | 44 | 55 | 0.9 | 4.3 | 0.00 | 0.16 | 0.01 | 96 | 1011.5 |
| 20260507031410 | 44 | 35 | 0.9 | 4.3 | 0.00 | 0.16 | 0.01 | 96 | 1011.6 |
| 20260507031209 | 44 | 329 | 0.9 | 2.6 | 0.00 | 0.16 | 0.01 | 96 | 1011.6 |
| 20260507030654 | 44 | 44 | 0.9 | 3.5 | 0.00 | 0.16 | 0.01 | 96 | 1011.6 |
| 20260507025923 | 44 | 355 | 0.9 | 4.3 | 0.00 | 0.16 | 0.01 | 96 | 1011.5 |
| 20260507024907 | 44 | 310 | 0.9 | 3.5 | 0.00 | 0.16 | 0.01 | 97 | 1011.4 |
| 20260507024408 | 44 | 44 | 0.9 | 3.5 | 0.00 | 0.16 | 0.01 | 97 | 1011.5 |
| 20260507023908 | 44 | 51 | 0.9 | 2.6 | 0.01 | 0.16 | 0.01 | 97 | 1011.5 |
| 20260507023408 | 44 | 15 | 0.9 | 2.6 | 0.01 | 0.16 | 0.01 | 97 | 1011.5 |
| 20260507022905 | 44 | 10 | 0.9 | 2.6 | 0.01 | 0.16 | 0.01 | 96 | 1011.5 |
| 20260507022405 | 44 | 335 | 0.9 | 2.6 | 0.01 | 0.16 | 0.01 | 96 | 1011.4 |
| 20260507021905 | 44 | 26 | 0.9 | 4.3 | 0.01 | 0.16 | 0.01 | 96 | 1011.3 |
| 20260507021404 | 44 | 51 | 0.9 | 4.3 | 0.01 | 0.16 | 0.01 | 96 | 1011.2 |
| 20260507020903 | 44 | 355 | 0.9 | 3.5 | 0.01 | 0.16 | 0.01 | 96 | 1011.3 |
| 20260507020403 | 45 | 29 | 0.9 | 3.5 | 0.01 | 0.16 | 0.01 | 96 | 1011.3 |
| 20260507015903 | 44 | 300 | 0.9 | 3.5 | 0.01 | 0.16 | 0.01 | 96 | 1011.2 |
| 20260507015403 | 45 | 38 | 0.9 | 4.3 | 0.01 | 0.16 | 0.01 | 96 | 1011.2 |
| 20260507014901 | 45 | 351 | 0.9 | 4.3 | 0.01 | 0.16 | 0.01 | 96 | 1011.1 |
| 20260507014402 | 45 | 32 | 0.9 | 4.3 | 0.01 | 0.16 | 0.01 | 96 | 1011.1 |
| 20260507014134 | 45 | 22 | 0.9 | 2.6 | 0.00 | 0.15 | 0.00 | 96 | 1011.2 |
| 20260507013351 | 45 | 339 | 0.9 | 3.5 | 0.00 | 0.15 | 0.00 | 96 | 1011.1 |
| 20260507013119 | 45 | 57 | 0.9 | 3.5 | 0.00 | 0.15 | 0.00 | 96 | 1011.1 |
| 20260507012339 | 45 | 11 | 0.9 | 2.6 | 0.00 | 0.15 | 0.00 | 96 | 1011.0 |
| 20260507011833 | 45 | 333 | 0.9 | 2.6 | 0.00 | 0.15 | 0.00 | 96 | 1010.9 |
| 20260507011331 | 45 | 335 | 0.9 | 2.6 | 0.00 | 0.15 | 0.00 | 96 | 1010.9 |
| 20260507010831 | 45 | 40 | 0.9 | 2.6 | 0.00 | 0.15 | 0.00 | 96 | 1011.0 |
| 20260507010349 | 45 | 5 | 0.9 | 1.7 | 0.00 | 0.15 | 0.00 | 96 | 1010.9 |
| 20260507005335 | 45 | 44 | 0.9 | 2.6 | 0.00 | 0.15 | 0.00 | 96 | 1010.9 |
| 20260507004834 | 45 | 38 | 0.9 | 2.6 | 0.00 | 0.15 | 0.00 | 96 | 1010.9 |
| 20260507004333 | 45 | 15 | 0.9 | 2.6 | 0.00 | 0.15 | 0.00 | 96 | 1010.8 |
| 20260507003831 | 45 | 53 | 0.9 | 2.6 | 0.00 | 0.15 | 0.00 | 96 | 1010.8 |
| 20260507003331 | 45 | 336 | 0.9 | 2.6 | 0.00 | 0.15 | 0.00 | 96 | 1010.7 |
| 20260507003058 | 45 | 329 | 0.9 | 2.6 | 0.00 | 0.15 | 0.00 | 96 | 1010.7 |
| 20260507002330 | 45 | 51 | 0.9 | 5.2 | 0.00 | 0.15 | 0.00 | 96 | 1010.6 |
| 20260507002059 | 45 | 53 | 0.9 | 5.2 | 0.00 | 0.15 | 0.00 | 96 | 1010.6 |
| 20260507001329 | 45 | 59 | 0.9 | 2.6 | 0.00 | 0.15 | 0.00 | 96 | 1010.6 |
| 20260507000829 | 45 | 290 | 0.9 | 2.6 | 0.00 | 0.15 | 0.00 | 96 | 1010.7 |
| 20260507000329 | 45 | 347 | 0.9 | 2.6 | 0.00 | 0.15 | 0.00 | 96 | 1010.6 |
| 20260506235830 | 45 | 251 | 0.9 | 3.5 | 0.00 | 0.15 | 0.00 | 96 | 1010.6 |
| 20260506235330 | 45 | 285 | 0.9 | 3.5 | 0.00 | 0.15 | 0.00 | 96 | 1010.5 |
| 20260506234827 | 45 | 346 | 0.9 | 1.7 | 0.00 | 0.15 | 0.00 | 96 | 1010.5 |
| 20260506234332 | 45 | 42 | 0.9 | 4.3 | 0.00 | 0.15 | 0.00 | 96 | 1010.5 |
| 20260506233830 | 45 | 22 | 1.7 | 5.2 | 0.00 | 0.15 | 0.00 | 96 | 1010.5 |
| 20260506233328 | 45 | 41 | 0.9 | 5.2 | 0.00 | 0.15 | 0.00 | 96 | 1010.4 |
| 20260506232826 | 45 | 312 | 0.9 | 2.6 | 0.00 | 0.15 | 0.00 | 96 | 1010.5 |
| 20260506232325 | 45 | 15 | 0.9 | 3.5 | 0.00 | 0.15 | 0.00 | 96 | 1010.5 |
| 20260506231826 | 45 | 355 | 0.9 | 3.5 | 0.00 | 0.15 | 0.00 | 96 | 1010.5 |
| 20260506231325 | 45 | 32 | 0.9 | 2.6 | 0.00 | 0.15 | 0.00 | 96 | 1010.5 |
| 20260506230826 | 46 | 336 | 0.9 | 3.5 | 0.00 | 0.15 | 0.00 | 96 | 1010.5 |
| 20260506230325 | 46 | 28 | 0.9 | 3.5 | 0.00 | 0.15 | 0.00 | 96 | 1010.5 |
| 20260506225826 | 46 | 333 | 0.9 | 3.5 | 0.00 | 0.15 | 0.00 | 96 | 1010.4 |
| 20260506224825 | 46 | 355 | 0.9 | 3.5 | 0.00 | 0.15 | 0.00 | 96 | 1010.3 |
| 20260506224554 | 46 | 0 | 0.9 | 3.5 | 0.00 | 0.15 | 0.00 | 96 | 1010.3 |
| 20260506223325 | 46 | 331 | 0.9 | 2.6 | 0.01 | 0.15 | 0.00 | 96 | 1010.4 |
| 20260506222826 | 46 | 327 | 0.9 | 3.5 | 0.01 | 0.15 | 0.00 | 96 | 1010.4 |
| 20260506222320 | 46 | 337 | 0.9 | 3.5 | 0.01 | 0.15 | 0.00 | 96 | 1010.2 |
| 20260506221820 | 46 | 307 | 0.9 | 2.6 | 0.01 | 0.15 | 0.00 | 96 | 1010.2 |
| 20260506221318 | 46 | 338 | 0.9 | 2.6 | 0.01 | 0.15 | 0.00 | 96 | 1010.3 |
| 20260506220814 | 46 | 346 | 0.9 | 2.6 | 0.01 | 0.16 | 0.00 | 96 | 1010.0 |
| 20260506220315 | 46 | 339 | 0.9 | 2.6 | 0.01 | 0.16 | 0.00 | 96 | 1010.0 |
| 20260506215812 | 46 | 35 | 0.0 | 1.7 | 0.01 | 0.16 | 0.16 | 96 | 1009.9 |
| 20260506215313 | 46 | 311 | 0.0 | 1.7 | 0.01 | 0.16 | 0.16 | 96 | 1009.9 |
| 20260506214812 | 46 | 344 | 0.9 | 1.7 | 0.01 | 0.16 | 0.16 | 96 | 1009.9 |
| 20260506214313 | 46 | 327 | 0.9 | 1.7 | 0.01 | 0.16 | 0.15 | 96 | 1009.9 |
| 20260506214034 | 46 | 43 | 0.9 | 2.6 | 0.00 | 0.15 | 0.15 | 96 | 1009.9 |
| 20260506213311 | 46 | 24 | 0.9 | 3.5 | 0.00 | 0.15 | 0.15 | 96 | 1009.9 |
| 20260506212807 | 46 | 59 | 0.9 | 3.5 | 0.00 | 0.15 | 0.15 | 96 | 1009.9 |
| 20260506212307 | 46 | 23 | 0.9 | 1.7 | 0.00 | 0.15 | 0.15 | 96 | 1009.9 |
| 20260506211807 | 46 | 313 | 0.9 | 2.6 | 0.00 | 0.15 | 0.15 | 96 | 1009.8 |
| 20260506211307 | 46 | 311 | 0.9 | 2.6 | 0.00 | 0.16 | 0.15 | 96 | 1009.8 |
| 20260506210809 | 46 | 46 | 0.9 | 2.6 | 0.00 | 0.16 | 0.15 | 96 | 1009.8 |
| 20260506210307 | 46 | 343 | 0.9 | 2.6 | 0.00 | 0.16 | 0.15 | 96 | 1009.7 |
| 20260506205806 | 46 | 306 | 0.9 | 2.6 | 0.00 | 0.16 | 0.15 | 96 | 1009.6 |
| 20260506205539 | 46 | 37 | 0.9 | 2.6 | 0.00 | 0.17 | 0.15 | 96 | 1009.6 |
| 20260506204807 | 46 | 32 | 0.9 | 2.6 | 0.00 | 0.17 | 0.15 | 96 | 1009.6 |
| 20260506203803 | 46 | 40 | 0.9 | 3.5 | 0.00 | 0.18 | 0.15 | 96 | 1009.5 |
| 20260506203303 | 46 | 324 | 0.9 | 3.5 | 0.01 | 0.20 | 0.15 | 96 | 1009.4 |
| 20260506202802 | 46 | 35 | 0.9 | 3.5 | 0.01 | 0.20 | 0.15 | 96 | 1009.4 |
| 20260506202306 | 46 | 330 | 0.9 | 3.5 | 0.01 | 0.22 | 0.15 | 96 | 1009.4 |
| 20260506201803 | 46 | 30 | 0.9 | 2.6 | 0.01 | 0.23 | 0.15 | 96 | 1009.4 |
| 20260506201529 | 46 | 266 | 0.9 | 5.2 | 0.01 | 0.24 | 0.15 | 96 | 1009.4 |
| 20260506200802 | 46 | 78 | 0.9 | 5.2 | 0.01 | 0.24 | 0.15 | 96 | 1009.4 |
| 20260506200303 | 46 | 46 | 0.9 | 3.5 | 0.01 | 0.24 | 0.15 | 96 | 1009.3 |
| 20260506195803 | 46 | 51 | 0.9 | 3.5 | 0.01 | 0.26 | 0.15 | 96 | 1009.3 |
| 20260506195536 | 46 | 303 | 0.9 | 3.5 | 0.01 | 0.27 | 0.15 | 96 | 1009.2 |
| 20260506194803 | 46 | 22 | 0.9 | 8.7 | 0.01 | 0.28 | 0.15 | 96 | 1009.1 |
| 20260506194301 | 46 | 350 | 1.7 | 8.7 | 0.01 | 0.28 | 0.15 | 96 | 1009.1 |
| 20260506193803 | 46 | 323 | 0.9 | 5.2 | 0.01 | 0.28 | 0.14 | 96 | 1009.0 |
| 20260506193303 | 46 | 42 | 0.9 | 5.2 | 0.00 | 0.28 | 0.14 | 96 | 1008.9 |
| 20260506192802 | 46 | 75 | 1.7 | 4.3 | 0.00 | 0.28 | 0.14 | 96 | 1008.9 |
| 20260506192306 | 46 | 30 | 0.9 | 4.3 | 0.00 | 0.29 | 0.14 | 96 | 1008.8 |
| 20260506191800 | 46 | 313 | 0.9 | 4.3 | 0.00 | 0.31 | 0.14 | 96 | 1008.8 |
| 20260506191304 | 47 | 0 | 1.7 | 5.2 | 0.00 | 0.31 | 0.14 | 96 | 1008.9 |
| 20260506190801 | 46 | 284 | 1.7 | 5.2 | 0.00 | 0.32 | 0.14 | 96 | 1008.7 |
| 20260506190529 | 47 | 23 | 1.7 | 7.8 | 0.00 | 0.33 | 0.14 | 96 | 1008.6 |
| 20260506185758 | 47 | 323 | 0.9 | 7.8 | 0.00 | 0.34 | 0.14 | 96 | 1008.6 |
| 20260506185258 | 47 | 321 | 1.7 | 5.2 | 0.00 | 0.35 | 0.14 | 96 | 1008.5 |
| 20260506184758 | 47 | 40 | 1.7 | 7.0 | 0.00 | 0.35 | 0.14 | 96 | 1008.5 |
| 20260506184524 | 47 | 298 | 1.7 | 7.0 | 0.00 | 0.35 | 0.14 | 96 | 1008.5 |
| 20260506183527 | 47 | 321 | 0.9 | 3.5 | 0.00 | 0.36 | 0.14 | 96 | 1008.4 |
| 20260506182756 | 47 | 37 | 0.9 | 2.6 | 0.00 | 0.37 | 0.14 | 96 | 1008.3 |
| 20260506182257 | 47 | 49 | 0.9 | 2.6 | 0.00 | 0.37 | 0.14 | 96 | 1008.2 |
| 20260506181757 | 47 | 43 | 0.9 | 2.6 | 0.00 | 0.37 | 0.14 | 96 | 1008.3 |
| 20260506181253 | 47 | 329 | 0.9 | 4.3 | 0.00 | 0.38 | 0.14 | 96 | 1008.3 |
| 20260506180754 | 47 | 34 | 0.9 | 4.3 | 0.00 | 0.38 | 0.14 | 96 | 1008.2 |
| 20260506180253 | 47 | 324 | 0.9 | 4.3 | 0.01 | 0.38 | 0.14 | 96 | 1008.2 |
| 20260506175754 | 47 | 13 | 0.9 | 7.0 | 0.01 | 0.39 | 0.14 | 96 | 1008.2 |
| 20260506175252 | 47 | 335 | 1.7 | 8.7 | 0.01 | 0.39 | 0.14 | 96 | 1008.3 |
| 20260506174749 | 47 | 325 | 1.7 | 8.7 | 0.01 | 0.39 | 0.14 | 96 | 1008.2 |
| 20260506174250 | 47 | 284 | 1.7 | 6.1 | 0.01 | 0.39 | 0.14 | 96 | 1008.2 |
| 20260506174018 | 47 | 22 | 1.7 | 6.1 | 0.01 | 0.39 | 0.14 | 96 | 1008.1 |
| 20260506173250 | 47 | 12 | 0.9 | 6.1 | 0.01 | 0.39 | 0.14 | 96 | 1008.1 |
| 20260506172748 | 47 | 54 | 0.9 | 3.5 | 0.01 | 0.40 | 0.14 | 96 | 1008.1 |
| 20260506172246 | 47 | 0 | 0.9 | 3.5 | 0.01 | 0.40 | 0.14 | 96 | 1008.1 |
| 20260506171746 | 47 | 337 | 0.9 | 3.5 | 0.01 | 0.41 | 0.14 | 96 | 1008.1 |
| 20260506171245 | 47 | 18 | 0.9 | 2.6 | 0.01 | 0.41 | 0.14 | 96 | 1008.0 |
| 20260506170746 | 47 | 5 | 0.9 | 3.5 | 0.01 | 0.41 | 0.14 | 96 | 1008.0 |
| 20260506170247 | 47 | 283 | 1.7 | 6.1 | 0.00 | 0.41 | 0.13 | 95 | 1008.0 |
| 20260506165746 | 48 | 90 | 1.7 | 6.1 | 0.00 | 0.41 | 0.13 | 95 | 1007.9 |
| 20260506165246 | 48 | 317 | 1.7 | 7.0 | 0.00 | 0.41 | 0.13 | 95 | 1007.9 |
| 20260506164746 | 48 | 315 | 1.7 | 7.0 | 0.00 | 0.42 | 0.13 | 96 | 1007.9 |
| 20260506164245 | 48 | 319 | 1.7 | 7.8 | 0.00 | 0.42 | 0.13 | 96 | 1007.9 |
| 20260506163746 | 48 | 292 | 1.7 | 7.8 | 0.00 | 0.43 | 0.13 | 95 | 1007.8 |
| 20260506163246 | 48 | 53 | 1.7 | 4.3 | 0.00 | 0.43 | 0.13 | 95 | 1007.8 |
| 20260506162747 | 48 | 227 | 0.9 | 4.3 | 0.00 | 0.43 | 0.13 | 95 | 1007.7 |
| 20260506162241 | 48 | 248 | 0.9 | 3.5 | 0.01 | 0.44 | 0.13 | 95 | 1007.7 |
| 20260506161742 | 48 | 88 | 1.7 | 7.0 | 0.01 | 0.44 | 0.13 | 95 | 1007.7 |
| 20260506161242 | 48 | 19 | 1.7 | 7.0 | 0.01 | 0.46 | 0.13 | 96 | 1007.6 |
| 20260506160742 | 48 | 311 | 1.7 | 8.7 | 0.01 | 0.48 | 0.13 | 96 | 1007.7 |
| 20260506160242 | 48 | 14 | 1.7 | 8.7 | 0.01 | 0.50 | 0.13 | 95 | 1007.7 |
| 20260506155741 | 49 | 321 | 0.9 | 4.3 | 0.01 | 0.54 | 0.13 | 95 | 1007.6 |
| 20260506155242 | 49 | 55 | 0.9 | 3.5 | 0.01 | 0.55 | 0.13 | 95 | 1007.7 |
| 20260506154742 | 49 | 50 | 1.7 | 3.5 | 0.01 | 0.56 | 0.13 | 95 | 1007.6 |
| 20260506154242 | 49 | 298 | 0.9 | 3.5 | 0.01 | 0.58 | 0.13 | 95 | 1007.5 |
| 20260506153737 | 49 | 45 | 1.7 | 7.8 | 0.01 | 0.62 | 0.13 | 95 | 1007.7 |
| 20260506153239 | 49 | 306 | 1.7 | 7.8 | 0.02 | 0.65 | 0.13 | 95 | 1007.4 |
| 20260506152738 | 49 | 319 | 0.9 | 7.0 | 0.02 | 0.65 | 0.13 | 95 | 1007.5 |
| 20260506152238 | 49 | 251 | 0.9 | 7.0 | 0.01 | 0.65 | 0.13 | 95 | 1007.4 |
| 20260506152011 | 49 | 336 | 0.9 | 5.2 | 0.01 | 0.65 | 0.13 | 95 | 1007.4 |
| 20260506151238 | 49 | 355 | 0.9 | 6.1 | 0.01 | 0.65 | 0.13 | 95 | 1007.4 |
| 20260506150738 | 49 | 39 | 0.9 | 6.1 | 0.01 | 0.65 | 0.13 | 95 | 1007.3 |
| 20260506150237 | 49 | 53 | 0.9 | 2.6 | 0.01 | 0.65 | 0.13 | 95 | 1007.2 |
| 20260506145739 | 49 | 47 | 0.9 | 5.2 | 0.01 | 0.65 | 0.13 | 95 | 1007.2 |
| 20260506145232 | 49 | 331 | 0.9 | 5.2 | 0.01 | 0.65 | 0.13 | 95 | 1007.3 |
| 20260506144731 | 49 | 320 | 0.9 | 7.0 | 0.01 | 0.65 | 0.13 | 95 | 1007.2 |
| 20260506144232 | 49 | 316 | 1.7 | 10.4 | 0.01 | 0.66 | 0.13 | 95 | 1007.2 |
| 20260506143733 | 49 | 323 | 1.7 | 10.4 | 0.01 | 0.66 | 0.13 | 95 | 1007.1 |
| 20260506143231 | 49 | 329 | 0.9 | 4.3 | 0.00 | 0.65 | 0.12 | 95 | 1007.2 |
| 20260506142732 | 50 | 33 | 1.7 | 4.3 | 0.00 | 0.65 | 0.12 | 95 | 1007.2 |
| 20260506142232 | 50 | 29 | 1.7 | 7.8 | 0.00 | 0.66 | 0.12 | 95 | 1007.2 |
| 20260506142002 | 50 | 355 | 1.7 | 7.8 | 0.00 | 0.66 | 0.12 | 95 | 1007.1 |
| 20260506141229 | 50 | 311 | 1.7 | 9.6 | 0.00 | 0.67 | 0.12 | 95 | 1007.1 |
| 20260506140730 | 50 | 283 | 1.7 | 9.6 | 0.00 | 0.67 | 0.12 | 95 | 1006.9 |
| 20260506140230 | 50 | 283 | 1.7 | 6.1 | 0.00 | 0.67 | 0.12 | 95 | 1006.9 |
| 20260506135730 | 50 | 306 | 1.7 | 6.1 | 0.00 | 0.68 | 0.12 | 95 | 1006.9 |
| 20260506135229 | 50 | 0 | 1.7 | 5.2 | 0.00 | 0.68 | 0.12 | 95 | 1006.9 |
| 20260506134730 | 50 | 229 | 0.9 | 5.2 | 0.00 | 0.68 | 0.12 | 95 | 1007.0 |
| 20260506134229 | 50 | 348 | 0.9 | 5.2 | 0.00 | 0.68 | 0.12 | 95 | 1007.1 |
| 20260506133728 | 50 | 22 | 0.9 | 6.1 | 0.00 | 0.68 | 0.12 | 95 | 1007.0 |
| 20260506133225 | 50 | 324 | 1.7 | 6.1 | 0.00 | 0.68 | 0.12 | 95 | 1006.9 |
| 20260506132719 | 51 | 341 | 1.7 | 7.0 | 0.00 | 0.68 | 0.12 | 95 | 1006.9 |
| 20260506132212 | 51 | 29 | 1.7 | 7.0 | 0.00 | 0.68 | 0.12 | 95 | 1006.9 |
| 20260506131711 | 51 | 335 | 0.9 | 5.2 | 0.00 | 0.68 | 0.12 | 95 | 1006.8 |
| 20260506131213 | 51 | 291 | 0.9 | 5.2 | 0.00 | 0.68 | 0.12 | 95 | 1006.7 |
| 20260506130712 | 51 | 43 | 1.7 | 4.3 | 0.01 | 0.68 | 0.12 | 94 | 1006.7 |
| 20260506130209 | 51 | 52 | 1.7 | 7.8 | 0.01 | 0.68 | 0.12 | 95 | 1006.7 |
| 20260506125710 | 51 | 344 | 1.7 | 7.8 | 0.01 | 0.68 | 0.12 | 95 | 1006.6 |
| 20260506124705 | 52 | 5 | 1.7 | 7.8 | 0.01 | 0.68 | 0.12 | 95 | 1006.6 |
| 20260506124439 | 52 | 289 | 1.7 | 7.0 | 0.01 | 0.68 | 0.12 | 95 | 1006.6 |
| 20260506123705 | 52 | 317 | 1.7 | 7.0 | 0.01 | 0.68 | 0.12 | 96 | 1006.5 |
| 20260506123206 | 52 | 340 | 1.7 | 7.8 | 0.01 | 0.68 | 0.12 | 96 | 1006.5 |
| 20260506122705 | 51 | 337 | 1.7 | 7.8 | 0.01 | 0.68 | 0.12 | 95 | 1006.5 |
| 20260506122436 | 51 | 254 | 0.9 | 4.3 | 0.01 | 0.68 | 0.12 | 95 | 1006.5 |
| 20260506121705 | 51 | 342 | 1.7 | 4.3 | 0.01 | 0.68 | 0.12 | 95 | 1006.6 |
| 20260506120702 | 52 | 290 | 1.7 | 6.1 | 0.00 | 0.67 | 0.11 | 95 | 1006.3 |
| 20260506120201 | 52 | 347 | 0.9 | 6.1 | 0.00 | 0.67 | 0.11 | 95 | 1006.3 |
| 20260506115704 | 52 | 296 | 0.9 | 3.5 | 0.01 | 0.67 | 0.11 | 95 | 1006.3 |
| 20260506115203 | 52 | 275 | 0.9 | 6.1 | 0.01 | 0.67 | 0.11 | 95 | 1006.2 |
| 20260506114151 | 53 | 239 | 1.7 | 6.1 | 0.02 | 0.67 | 0.11 | 95 | 1006.1 |
| 20260506113646 | 53 | 325 | 0.9 | 6.1 | 0.02 | 0.67 | 0.11 | 95 | 1006.1 |
| 20260506113140 | 53 | 5 | 0.9 | 4.3 | 0.02 | 0.67 | 0.11 | 96 | 1006.1 |
| 20260506112635 | 53 | 328 | 0.9 | 3.5 | 0.03 | 0.67 | 0.11 | 96 | 1006.1 |
| 20260506111631 | 53 | 313 | 0.9 | 3.5 | 0.05 | 0.67 | 0.11 | 96 | 1006.1 |
| 20260506111132 | 53 | 47 | 0.9 | 5.2 | 0.05 | 0.67 | 0.11 | 96 | 1006.1 |
| 20260506110900 | 53 | 313 | 1.7 | 5.2 | 0.05 | 0.67 | 0.11 | 96 | 1006.0 |
| 20260506110146 | 53 | 294 | 1.7 | 5.2 | 0.05 | 0.67 | 0.11 | 96 | 1006.0 |
| 20260506105632 | 52 | 53 | 0.9 | 2.6 | 0.04 | 0.66 | 0.10 | 96 | 1006.0 |
| 20260506105132 | 52 | 31 | 0.9 | 2.6 | 0.04 | 0.66 | 0.10 | 96 | 1006.1 |
| 20260506104634 | 52 | 40 | 0.9 | 1.7 | 0.04 | 0.66 | 0.10 | 96 | 1006.0 |
| 20260506104132 | 52 | 324 | 0.9 | 2.6 | 0.03 | 0.65 | 0.09 | 95 | 1006.0 |
| 20260506103635 | 52 | 287 | 0.9 | 2.6 | 0.03 | 0.65 | 0.09 | 96 | 1006.0 |
| 20260506103132 | 52 | 301 | 0.9 | 1.7 | 0.02 | 0.65 | 0.09 | 96 | 1006.1 |
| 20260506102631 | 52 | 49 | 0.9 | 1.7 | 0.02 | 0.64 | 0.08 | 96 | 1006.0 |
| 20260506102131 | 52 | 13 | 0.0 | 1.7 | 0.01 | 0.63 | 0.07 | 96 | 1005.9 |
| 20260506101901 | 52 | 329 | 0.0 | 1.7 | 0.00 | 0.62 | 0.06 | 96 | 1006.0 |
| 20260506101130 | 52 | 61 | 0.0 | 1.7 | 0.00 | 0.62 | 0.06 | 96 | 1005.9 |
| 20260506100630 | 52 | 321 | 0.0 | 1.7 | 0.00 | 0.62 | 0.06 | 96 | 1005.9 |
| 20260506100130 | 52 | 315 | 0.9 | 2.6 | 0.00 | 0.62 | 0.06 | 96 | 1005.9 |
| 20260506095625 | 52 | 32 | 0.9 | 3.5 | 0.01 | 0.62 | 0.06 | 96 | 1005.9 |
| 20260506095125 | 52 | 298 | 0.9 | 5.2 | 0.01 | 0.62 | 0.06 | 96 | 1005.7 |
| 20260506094625 | 52 | 339 | 0.9 | 5.2 | 0.01 | 0.62 | 0.06 | 96 | 1005.8 |
| 20260506094125 | 52 | 5 | 0.9 | 3.5 | 0.01 | 0.62 | 0.06 | 96 | 1005.7 |
| 20260506093625 | 51 | 336 | 0.9 | 3.5 | 0.01 | 0.62 | 0.06 | 96 | 1005.7 |
| 20260506093356 | 51 | 331 | 0.9 | 2.6 | 0.01 | 0.62 | 0.06 | 96 | 1005.7 |
| 20260506092623 | 51 | 355 | 0.0 | 1.7 | 0.01 | 0.62 | 0.06 | 96 | 1005.6 |
| 20260506092125 | 51 | 355 | 0.9 | 1.7 | 0.01 | 0.62 | 0.06 | 96 | 1005.7 |
| 20260506091623 | 51 | 348 | 0.9 | 1.7 | 0.01 | 0.62 | 0.06 | 95 | 1005.7 |
| 20260506091121 | 51 | 348 | 0.9 | 1.7 | 0.01 | 0.62 | 0.06 | 96 | 1005.7 |
| 20260506090619 | 52 | 350 | 0.0 | 3.5 | 0.01 | 0.62 | 0.06 | 96 | 1005.7 |
| 20260506090125 | 52 | 339 | 0.0 | 3.5 | 0.01 | 0.62 | 0.06 | 96 | 1005.6 |
| 20260506085615 | 52 | 340 | 0.0 | 1.7 | 0.00 | 0.61 | 0.06 | 96 | 1005.6 |
| 20260506085343 | 52 | 345 | 0.0 | 1.7 | 0.00 | 0.61 | 0.06 | 96 | 1005.5 |
| 20260506084612 | 52 | 12 | 0.9 | 1.7 | 0.00 | 0.61 | 0.06 | 96 | 1005.6 |
| 20260506084109 | 51 | 351 | 0.0 | 1.7 | 0.00 | 0.61 | 0.06 | 96 | 1005.4 |
| 20260506083607 | 51 | 355 | 0.0 | 1.7 | 0.00 | 0.61 | 0.06 | 96 | 1005.4 |
| 20260506083339 | 51 | 340 | 0.0 | 1.7 | 0.00 | 0.61 | 0.06 | 96 | 1005.4 |
| 20260506082612 | 51 | 340 | 0.9 | 1.7 | 0.00 | 0.61 | 0.06 | 96 | 1005.4 |
| 20260506082111 | 51 | 340 | 0.0 | 1.7 | 0.00 | 0.61 | 0.06 | 96 | 1005.4 |
| 20260506081606 | 51 | 288 | 0.0 | 1.7 | 0.00 | 0.61 | 0.06 | 96 | 1005.5 |
| 20260506081105 | 51 | 351 | 0.0 | 1.7 | 0.00 | 0.61 | 0.06 | 96 | 1005.4 |
| 20260506080604 | 51 | 351 | 0.0 | 1.7 | 0.00 | 0.61 | 0.06 | 96 | 1005.4 |
| 20260506080104 | 51 | 338 | 0.9 | 2.6 | 0.00 | 0.61 | 0.06 | 96 | 1005.4 |
| 20260506073058 | 51 | 331 | 0.0 | 0.9 | 0.00 | 0.61 | 0.06 | 96 | 1005.3 |
| 20260506072555 | 51 | 327 | 0.0 | 0.9 | 0.00 | 0.61 | 0.06 | 96 | 1005.2 |
| 20260506072053 | 51 | 305 | 0.0 | 0.9 | 0.00 | 0.61 | 0.06 | 96 | 1005.2 |
| 20260506071821 | 51 | 305 | 0.0 | 1.7 | 0.00 | 0.61 | 0.06 | 96 | 1005.2 |
| 20260506071050 | 51 | 305 | 0.0 | 1.7 | 0.00 | 0.61 | 0.06 | 96 | 1005.2 |
| 20260506070548 | 51 | 305 | 0.0 | 0.9 | 0.00 | 0.61 | 0.06 | 96 | 1005.2 |
| 20260506062040 | 51 | 305 | 0.0 | 0.9 | 0.02 | 0.61 | 0.06 | 96 | 1005.0 |
| 20260506061812 | 51 | 305 | 0.0 | 0.9 | 0.03 | 0.61 | 0.06 | 96 | 1005.0 |
| 20260506061040 | 51 | 304 | 0.0 | 0.0 | 0.04 | 0.61 | 0.06 | 97 | 1004.9 |
| 20260506060540 | 51 | 304 | 0.0 | 0.0 | 0.05 | 0.61 | 0.06 | 97 | 1005.0 |
| 20260506051041 | 50 | 286 | 0.9 | 2.6 | 0.01 | 0.57 | 0.02 | 96 | 1005.1 |
| 20260506050808 | 50 | 306 | 0.9 | 2.6 | 0.00 | 0.57 | 0.01 | 96 | 1005.2 |
| 20260506045040 | 50 | 313 | 0.0 | 1.7 | 0.00 | 0.57 | 0.01 | 96 | 1005.3 |
| 20260506044541 | 50 | 313 | 0.0 | 1.7 | 0.00 | 0.57 | 0.01 | 96 | 1005.2 |
| 20260506044312 | 50 | 309 | 0.0 | 1.7 | 0.00 | 0.57 | 0.01 | 96 | 1005.1 |
| 20260506043537 | 50 | 334 | 0.0 | 0.9 | 0.00 | 0.57 | 0.01 | 96 | 1005.2 |